EW6217 Weather Reports


Display with metric or nautical units.
time (UTC)temp
F
wind
direction
speed
MPH
gust
MPH
rain 1hr
in
rain 24hr
in
rain mn
in
humidity
%
barometer
mb
20190320061317 44 9 2.0 7.0 0.00 0.01 0.00 70 1027.5
20190320060330 44 22 4.0 10.0 0.00 0.01 0.00 70 1027.5
20190320055311 44 324 3.0 12.0 0.00 0.01 0.00 69 1027.6
20190320054314 44 15 4.0 10.0 0.00 0.01 0.00 69 1027.6
20190320053329 44 344 1.0 6.0 0.00 0.01 0.00 70 1027.7
20190320052311 44 338 3.0 10.0 0.00 0.01 0.00 68 1027.8
20190320051311 44 337 2.0 10.0 0.00 0.01 0.00 68 1027.9
20190320050320 44 338 6.0 13.0 0.00 0.01 0.00 65 1028.0
20190320045325 45 25 3.0 7.0 0.00 0.01 0.00 65 1028.1
20190320044324 45 356 4.0 10.0 0.00 0.01 0.00 63 1028.3
20190320043330 45 34 2.0 8.0 0.00 0.01 0.00 63 1028.5
20190320042327 45 34 3.0 8.0 0.00 0.01 0.00 64 1028.5
20190320041325 45 10 3.0 7.0 0.00 0.01 0.00 64 1028.5
20190320040322 45 40 4.0 7.0 0.00 0.01 0.00 63 1028.4
20190320035321 45 53 4.0 9.0 0.00 0.01 0.01 61 1028.4
20190320034317 45 48 5.0 8.0 0.00 0.01 0.01 62 1028.4
20190320033324 45 359 2.0 6.0 0.00 0.01 0.01 63 1028.5
20190320032327 45 17 4.0 8.0 0.00 0.01 0.01 61 1028.5
20190320031326 45 3 3.0 7.0 0.00 0.01 0.01 60 1028.6
20190320030319 45 4 3.0 9.0 0.00 0.01 0.01 60 1028.6
20190320025315 45 21 2.0 6.0 0.00 0.01 0.01 60 1028.6
20190320024315 45 2 4.0 8.0 0.00 0.01 0.01 60 1028.5
20190320023330 45 328 3.0 8.0 0.00 0.01 0.01 60 1028.8
20190320022329 45 51 1.0 5.0 0.00 0.01 0.01 60 1028.8
20190320021327 45 27 1.0 3.0 0.00 0.01 0.01 61 1028.7
20190320020315 45 33 2.0 6.0 0.00 0.01 0.01 59 1029.0
20190320015317 45 39 2.0 4.0 0.00 0.01 0.01 58 1028.7
20190320014325 45 30 1.0 8.0 0.00 0.01 0.01 58 1028.8
20190320013321 45 66 1.0 8.0 0.00 0.01 0.01 60 1028.7
20190320012319 45 75 1.0 5.0 0.00 0.01 0.01 58 1028.8
20190320011316 45 305 3.0 8.0 0.00 0.01 0.01 60 1029.0
20190320010317 45 18 2.0 7.0 0.00 0.01 0.01 58 1028.8
20190320005322 45 333 4.0 10.0 0.00 0.04 0.01 58 1028.7
20190320004315 45 25 2.0 7.0 0.00 0.04 0.01 60 1028.7
20190320003314 45 327 1.0 6.0 0.00 0.04 0.01 60 1028.8
20190320002326 45 47 2.0 8.0 0.00 0.04 0.01 59 1028.8
20190320001315 45 58 2.0 6.0 0.00 0.04 0.01 58 1028.6
20190320000321 46 77 0.0 5.0 0.00 0.04 0.01 58 1028.8
20190319235314 46 125 1.0 9.0 0.00 0.05 0.01 59 1028.6
20190319234322 46 15 1.0 9.0 0.00 0.05 0.01 61 1028.4
20190319233325 46 68 1.0 6.0 0.00 0.05 0.01 59 1028.6
20190319232315 46 98 2.0 7.0 0.00 0.05 0.01 60 1028.7
20190319231321 47 76 2.0 7.0 0.00 0.05 0.01 58 1028.5
20190319230327 47 35 1.0 8.0 0.00 0.05 0.01 55 1028.7
20190319225322 48 4 2.0 8.0 0.00 0.05 0.01 55 1028.6
20190319224328 48 7 2.0 11.0 0.00 0.05 0.01 55 1028.3
20190319223318 48 17 2.0 7.0 0.00 0.05 0.01 54 1028.2
20190319221312 49 25 3.0 7.0 0.00 0.05 0.01 54 1028.2
20190319220325 49 13 2.0 11.0 0.00 0.05 0.01 52 1028.4
20190319215923 49 342 3.0 12.0 0.00 0.05 0.01 53 1028.4
20190319214326 50 32 5.0 11.0 0.00 0.05 0.01 52 1028.1
20190319213316 50 57 5.0 12.0 0.00 0.05 0.01 50 1028.2
20190319212322 50 32 3.0 9.0 0.00 0.05 0.01 52 1028.1
20190319211325 50 25 3.0 13.0 0.00 0.05 0.01 50 1028.2
20190319210320 51 15 3.0 13.0 0.00 0.05 0.01 49 1028.2
20190319205324 51 9 4.0 9.0 0.00 0.05 0.01 51 1028.0
20190319204322 52 15 3.0 10.0 0.00 0.05 0.01 50 1028.1
20190319202321 52 28 5.0 12.0 0.00 0.05 0.01 48 1027.8
20190319201325 52 85 4.0 11.0 0.00 0.05 0.01 50 1027.9
20190319200317 52 5 4.0 10.0 0.00 0.05 0.01 48 1027.8
20190319195328 52 64 2.0 13.0 0.00 0.05 0.01 48 1027.9
20190319194319 52 46 4.0 12.0 0.00 0.05 0.01 48 1027.9
20190319192329 52 42 4.0 13.0 0.00 0.05 0.01 48 1028.0
20190319191314 51 34 3.0 12.0 0.00 0.05 0.01 49 1028.1
20190319190327 52 10 4.0 9.0 0.00 0.05 0.01 47 1028.4
20190319185322 52 58 4.0 12.0 0.00 0.05 0.01 49 1028.4
20190319184318 52 37 5.0 9.0 0.00 0.05 0.01 47 1028.6
20190319183327 51 49 1.0 10.0 0.00 0.05 0.01 49 1028.8
20190319182320 51 39 4.0 9.0 0.00 0.05 0.01 48 1029.0
20190319181312 51 13 4.0 11.0 0.00 0.05 0.01 48 1029.1
20190319180321 51 335 2.0 10.0 0.00 0.05 0.01 46 1029.2
20190319175326 51 84 3.0 7.0 0.00 0.05 0.01 47 1029.3
20190319174329 51 20 3.0 11.0 0.00 0.05 0.01 49 1029.5
20190319173325 51 104 3.0 12.0 0.00 0.05 0.01 47 1029.5
20190319172311 50 45 6.0 11.0 0.00 0.05 0.01 48 1029.6
20190319171317 50 46 2.0 8.0 0.00 0.05 0.01 51 1029.9
20190319170315 50 23 4.0 10.0 0.00 0.05 0.01 49 1030.0
20190319165319 50 73 3.0 13.0 0.00 0.05 0.01 49 1030.2
20190319164320 50 326 4.0 13.0 0.00 0.05 0.01 47 1030.5
20190319163319 50 51 5.0 10.0 0.00 0.05 0.01 49 1030.5
20190319162319 50 341 5.0 11.0 0.00 0.05 0.01 51 1030.7
20190319161318 49 14 4.0 14.0 0.00 0.05 0.01 51 1030.7
20190319160317 49 63 5.0 14.0 0.00 0.05 0.01 52 1030.6
20190319155323 49 37 3.0 13.0 0.00 0.05 0.01 52 1030.4
20190319154330 49 345 5.0 12.0 0.00 0.05 0.01 52 1030.3
20190319152320 48 27 7.0 13.0 0.00 0.05 0.01 52 1030.4
20190319151325 48 93 5.0 14.0 0.00 0.05 0.01 54 1030.4
20190319150327 48 345 4.0 11.0 0.00 0.05 0.01 53 1030.3
20190319145332 48 355 6.0 15.0 0.00 0.05 0.01 55 1030.3
20190319144323 47 30 5.0 12.0 0.00 0.05 0.01 57 1030.0
20190319143316 47 4 6.0 12.0 0.00 0.05 0.01 64 1030.1
20190319142330 47 305 5.0 11.0 0.00 0.05 0.01 72 1029.9
20190319141313 46 92 3.0 11.0 0.00 0.05 0.01 72 1030.0
20190319140322 45 33 4.0 9.0 0.00 0.05 0.01 74 1030.0
20190319135322 45 359 5.0 13.0 0.00 0.05 0.01 76 1029.7
20190319134319 44 11 3.0 8.0 0.00 0.05 0.01 78 1029.8
20190319133330 44 28 4.0 9.0 0.00 0.05 0.01 80 1029.8
20190319132319 43 12 2.0 8.0 0.00 0.05 0.01 81 1029.7
20190319131328 42 42 5.0 10.0 0.00 0.05 0.01 83 1029.6
20190319130319 42 327 3.0 8.0 0.00 0.05 0.01 86 1029.6
20190319125320 41 17 5.0 11.0 0.00 0.05 0.01 88 1029.6
20190319124316 41 350 3.0 8.0 0.00 0.05 0.01 92 1029.2
20190319123312 40 29 2.0 5.0 0.00 0.05 0.01 94 1029.2
20190319122315 39 21 0.0 7.0 0.00 0.05 0.01 94 1029.1
20190319121314 38 334 1.0 4.0 0.00 0.05 0.01 95 1029.3
20190319120326 38 17 2.0 5.0 0.00 0.05 0.01 95 1029.0
20190319115324 37 68 1.0 4.0 0.00 0.05 0.01 95 1029.0
20190319114313 37 342 2.0 4.0 0.00 0.05 0.01 95 1029.0
20190319113315 37 349 1.0 6.0 0.00 0.05 0.01 95 1029.0
20190319112319 37 342 1.0 5.0 0.00 0.05 0.01 95 1028.9
20190319111321 37 305 2.0 5.0 0.00 0.05 0.01 95 1028.8
20190319110318 37 338 1.0 5.0 0.00 0.05 0.01 95 1028.8
20190319105312 36 300 1.0 3.0 0.00 0.05 0.01 95 1028.7
20190319104324 36 288 0.0 2.0 0.00 0.05 0.01 95 1028.4
20190319103313 37 359 1.0 3.0 0.00 0.05 0.01 95 1028.4
20190319102315 37 328 0.0 2.0 0.00 0.05 0.01 95 1028.3
20190319101313 37 359 1.0 4.0 0.00 0.05 0.01 95 1028.2
20190319100330 37 327 0.0 1.0 0.00 0.05 0.01 96 1028.0
20190319095339 37 326 1.0 2.0 0.00 0.05 0.01 96 1028.2
20190319094323 37 358 0.0 1.0 0.00 0.05 0.01 96 1028.1
20190319093316 37 13 0.0 2.0 0.00 0.05 0.01 96 1028.1
20190319092314 37 325 0.0 2.0 0.00 0.05 0.01 96 1028.0
20190319091329 37 348 0.0 3.0 0.00 0.05 0.01 96 1027.8
20190319075312 37 359 0.0 1.0 0.00 0.04 0.00 96 1027.3
20190319074312 37 18 0.0 2.0 0.00 0.04 0.00 96 1027.2
20190319073322 37 356 1.0 2.0 0.00 0.04 0.00 96 1027.3
20190319072322 37 21 0.0 1.0 0.00 0.04 0.00 96 1027.3
20190319071320 37 311 0.0 1.0 0.00 0.04 0.00 96 1027.4
20190319070312 37 336 0.0 3.0 0.00 0.04 0.00 96 1027.4
20190319065316 38 311 0.0 2.0 0.00 0.04 0.00 96 1027.7
20190319064314 38 357 0.0 2.0 0.00 0.04 0.00 96 1027.5
20190319063310 38 8 1.0 3.0 0.00 0.04 0.00 96 1027.5
20190319062327 38 309 1.0 3.0 0.00 0.04 0.00 96 1027.5